Location: Griffin Ranch
(33.6186°N, 110.6622°W)
Time: 09:59:59
(UTC-07:00)

Cosmos 1812 - Visible Passes

Search period start: 02 September 2015 00:00
Search period end: 12 September 2015 00:00
Orbit: 526 x 530 km, 82.5° (Epoch: 02 September)

Date Brightness Start Highest point End Pass type
(mag) Time Alt. Az. Time Alt. Az. Time Alt. Az.
02 Sep 6.0 05:29:31 10° SE 05:31:57 16° E 05:34:30 10° NE visible
03 Sep 6.0 05:18:43 10° ESE 05:20:53 15° E 05:23:14 10° NE visible
04 Sep 6.1 05:07:57 10° ESE 05:09:50 14° E 05:11:54 10° ENE visible
05 Sep 6.2 04:57:15 10° ESE 04:58:46 12° E 05:00:31 10° ENE visible
06 Sep 6.3 04:46:40 10° ESE 04:47:42 11° E 04:49:00 10° ENE visible
10 Sep 2.9 05:35:09 10° SSW 05:38:58 54° W 05:42:48 10° N visible
11 Sep 2.8 05:24:01 10° SSW 05:27:52 60° W 05:31:44 10° N visible
